QPF
0.00 0.00 0.00 0.00 0.00 0.00 0.00 0.00 0.00 0.00 0.00 0.00 0.00 0.00 0.00 0.00 0.00 0.00 0.00 0.00 0.00 0.00 0.00 0.00 0.01 0.00 0.00 0.00 0.01 0.01 0.01 0.01 0.02 0.02 0.02 0.01 0.01 0.01 0.00 0.00 0.00 0.01 0.01 0.00
0.00 0.00 0.00 0.00 0.00 0.00 0.00 0.00 0.00 0.00 0.00 0.00 0.00 0.00 0.00 0.00 0.00 0.00 0.00 0.00 0.00 0.00 0.00 0.00 0.01 0.01 0.01 0.01 0.01 0.01 0.01 0.01 0.02 0.03 0.02 0.01 0.01 0.01 0.01 0.01 0.01 0.01 0.01 0.01
0.00 0.00 0.00 0.00 0.00 0.01 0.01 0.00 0.00 0.00 0.00 0.00 0.00 0.00 0.00 0.00 0.00 0.00 0.00 0.00 0.00 0.00 0.00 0.00 0.01 0.01 0.01 0.01 0.02 0.03 0.03 0.04 0.04 0.03 0.02 0.02 0.02 0.02 0.02 0.02 0.01 0.01 0.01 0.00
0.00 0.00 0.00 0.00 0.00 0.00 0.01 0.01 0.00 0.00 0.00 0.00 0.00 0.00 0.00 0.00 0.00 0.01 0.00 0.00 0.00 0.00 0.00 0.01 0.01 0.01 0.02 0.03 0.04 0.04 0.04 0.04 0.03 0.03 0.03 0.03 0.03 0.02 0.02 0.01 0.01 0.01 0.01 0.01
0.00 0.00 0.00 0.00 0.00 0.00 0.00 0.01 0.01 0.01 0.00 0.00 0.00 0.00 0.00 0.00 0.00 0.01 0.00 0.00 0.01 0.00 0.00 0.01 0.01 0.02 0.03 0.03 0.03 0.04 0.04 0.04 0.05 0.06 0.06 0.05 0.03 0.03 0.02 0.01 0.01 0.01 0.01 0.02
0.00 0.00 0.00 0.01 0.01 0.00 0.00 0.01 0.00 0.00 0.00 0.00 0.00 0.00 0.00 0.00 0.01 0.00 0.01 0.01 0.01 0.00 0.00 0.01 0.01 0.02 0.02 0.03 0.04 0.05 0.06 0.07 0.07 0.06 0.04 0.03 0.02 0.03 0.02 0.02 0.01 0.01 0.02 0.02
0.00 0.00 0.00 0.00 0.01 0.01 0.00 0.00 0.00 0.00 0.00 0.00 0.00 0.00 0.00 0.01 0.01 0.01 0.02 0.02 0.02 0.01 0.01 0.01 0.01 0.02 0.03 0.04 0.06 0.07 0.07 0.07 0.06 0.05 0.04 0.03 0.02 0.02 0.02 0.02 0.02 0.02 0.02 0.02
0.00 0.00 0.01 0.00 0.00 0.00 0.00 0.00 0.00 0.00 0.00 0.00 0.00 0.00 0.00 0.01 0.02 0.02 0.03 0.03 0.03 0.02 0.01 0.01 0.01 0.03 0.04 0.05 0.07 0.07 0.07 0.08 0.09 0.07 0.05 0.04 0.04 0.03 0.03 0.03 0.02 0.03 0.04 0.04
0.00 0.00 0.00 0.01 0.01 0.01 0.01 0.01 0.01 0.01 0.01 0.00 0.00 0.00 0.01 0.01 0.02 0.02 0.02 0.02 0.02 0.02 0.01 0.01 0.02 0.02 0.03 0.05 0.07 0.05 0.05 0.05 0.04 0.04 0.04 0.04 0.05 0.06 0.05 0.05 0.05 0.05 0.06 0.05
0.00 0.00 0.00 0.01 0.01 0.01 0.01 0.02 0.01 0.02 0.01 0.01 0.01 0.01 0.01 0.02 0.02 0.02 0.01 0.01 0.01 0.01 0.01 0.01 0.01 0.01 0.01 0.02 0.03 0.03 0.04 0.03 0.03 0.03 0.03 0.04 0.06 0.08 0.09 0.08 0.08 0.08 0.07 0.06
0.01 0.01 0.02 0.02 0.02 0.02 0.02 0.03 0.05 0.06 0.03 0.01 0.01 0.02 0.02 0.02 0.02 0.02 0.01 0.01 0.00 0.00 0.00 0.01 0.01 0.01 0.00 0.01 0.01 0.01 0.03 0.03 0.03 0.03 0.04 0.04 0.06 0.07 0.08 0.09 0.10 0.11 0.09 0.06
0.01 0.02 0.04 0.07 0.07 0.06 0.05 0.04 0.06 0.07 0.03 0.03 0.03 0.02 0.02 0.02 0.02 0.02 0.01 0.01 0.00 0.00 0.01 0.01 0.01 0.01 0.01 0.01 0.02 0.04 0.04 0.04 0.04 0.04 0.04 0.05 0.06 0.07 0.09 0.10 0.09 0.07 0.06 0.05
0.02 0.03 0.04 0.07 0.07 0.06 0.04 0.04 0.03 0.03 0.03 0.02 0.02 0.02 0.02 0.01 0.01 0.01 0.01 0.01 0.01 0.02 0.02 0.02 0.03 0.04 0.02 0.01 0.02 0.03 0.06 0.08 0.06 0.04 0.04 0.04 0.04 0.03 0.03 0.03 0.03 0.04 0.05 0.04
0.03 0.05 0.04 0.03 0.03 0.03 0.03 0.02 0.02 0.02 0.02 0.01 0.01 0.01 0.01 0.01 0.01 0.01 0.01 0.01 0.01 0.03 0.03 0.03 0.03 0.05 0.04 0.03 0.02 0.02 0.04 0.05 0.06 0.06 0.04 0.03 0.03 0.03 0.02 0.01 0.01 0.02 0.02 0.02
0.02 0.04 0.05 0.05 0.04 0.03 0.03 0.03 0.02 0.02 0.02 0.02 0.01 0.01 0.01 0.01 0.01 0.01 0.01 0.01 0.01 0.02 0.02 0.02 0.03 0.03 0.03 0.04 0.05 0.03 0.03 0.03 0.04 0.05 0.05 0.06 0.05 0.05 0.04 0.03 0.02 0.02 0.02 0.02
0.03 0.04 0.07 0.07 0.05 0.04 0.03 0.03 0.04 0.04 0.03 0.02 0.02 0.02 0.02 0.01 0.01 0.01 0.01 0.01 0.01 0.01 0.01 0.01 0.01 0.01 0.02 0.03 0.06 0.05 0.05 0.06 0.06 0.06 0.06 0.06 0.06 0.06 0.05 0.05 0.04 0.04 0.03 0.02
0.03 0.03 0.03 0.04 0.04 0.03 0.03 0.03 0.03 0.03 0.02 0.01 0.01 0.01 0.01 0.01 0.01 0.01 0.01 0.01 0.01 0.01 0.01 0.01 0.00 0.00 0.00 0.01 0.05 0.06 0.08 0.07 0.06 0.05 0.06 0.08 0.07 0.06 0.06 0.06 0.06 0.06 0.05 0.05
0.03 0.04 0.03 0.03 0.03 0.03 0.02 0.01 0.02 0.02 0.02 0.02 0.01 0.01 0.01 0.01 0.01 0.01 0.01 0.01 0.01 0.01 0.01 0.01 0.01 0.01 0.00 0.00 0.01 0.02 0.04 0.03 0.03 0.04 0.06 0.08 0.06 0.05 0.05 0.05 0.05 0.05 0.06 0.07
0.06 0.06 0.06 0.05 0.04 0.02 0.02 0.02 0.03 0.03 0.03 0.03 0.02 0.01 0.01 0.01 0.01 0.01 0.01 0.01 0.01 0.01 0.01 0.01 0.01 0.01 0.01 0.01 0.01 0.01 0.01 0.01 0.01 0.02 0.03 0.04 0.03 0.03 0.03 0.03 0.03 0.03 0.04 0.05
0.10 0.12 0.09 0.05 0.03 0.02 0.02 0.04 0.07 0.06 0.05 0.04 0.03 0.02 0.02 0.01 0.01 0.01 0.01 0.01 0.01 0.00 0.00 0.01 0.00 0.00 0.00 0.01 0.01 0.01 0.01 0.01 0.01 0.01 0.02 0.02 0.02 0.02 0.02 0.02 0.02 0.02 0.02 0.03
0.06 0.07 0.07 0.05 0.03 0.03 0.03 0.03 0.03 0.03 0.04 0.04 0.04 0.02 0.02 0.02 0.02 0.02 0.02 0.02 0.02 0.01 0.02 0.02 0.01 0.01 0.01 0.01 0.01 0.01 0.01 0.01 0.01 0.01 0.02 0.02 0.02 0.03 0.03 0.03 0.03 0.03 0.03 0.03
0.04 0.03 0.03 0.03 0.02 0.02 0.03 0.02 0.02 0.01 0.02 0.03 0.02 0.02 0.02 0.02 0.02 0.03 0.03 0.03 0.03 0.02 0.01 0.01 0.02 0.02 0.02 0.02 0.02 0.02 0.02 0.02 0.01 0.01 0.02 0.01 0.02 0.02 0.02 0.02 0.02 0.02 0.03 0.03
0.04 0.03 0.03 0.03 0.03 0.03 0.02 0.02 0.01 0.01 0.02 0.02 0.01 0.02 0.02 0.02 0.03 0.03 0.03 0.04 0.03 0.02 0.02 0.02 0.03 0.02 0.01 0.01 0.01 0.02 0.02 0.01 0.01 0.01 0.01 0.01 0.02 0.02 0.02 0.02 0.02 0.02 0.02 0.02
0.07 0.05 0.05 0.04 0.03 0.02 0.02 0.02 0.02 0.02 0.02 0.02 0.02 0.03 0.03 0.03 0.03 0.02 0.02 0.02 0.02 0.02 0.02 0.02 0.02 0.02 0.02 0.03 0.03 0.03 0.03 0.03 0.02 0.02 0.02 0.02 0.02 0.02 0.02 0.02 0.02 0.02 0.02 0.02
0.07 0.06 0.06 0.05 0.03 0.01 0.01 0.02 0.02 0.02 0.02 0.03 0.03 0.04 0.03 0.03 0.02 0.02 0.02 0.02 0.02 0.02 0.02 0.02 0.02 0.02 0.02 0.02 0.03 0.03 0.04 0.05 0.04 0.03 0.03 0.03 0.03 0.03 0.03 0.03 0.02 0.02 0.02 0.01
0.07 0.07 0.06 0.05 0.03 0.02 0.01 0.01 0.02 0.02 0.04 0.05 0.05 0.05 0.05 0.03 0.02 0.02 0.02 0.02 0.01 0.02 0.02 0.03 0.02 0.02 0.02 0.02 0.02 0.03 0.03 0.04 0.05 0.04 0.04 0.04 0.04 0.04 0.04 0.04 0.03 0.02 0.02 0.02
0.06 0.06 0.06 0.05 0.04 0.03 0.03 0.03 0.03 0.04 0.04 0.04 0.05 0.05 0.04 0.03 0.02 0.02 0.02 0.02 0.02 0.02 0.01 0.01 0.01 0.01 0.01 0.01 0.01 0.02 0.02 0.02 0.03 0.03 0.03 0.03 0.03 0.03 0.03 0.03 0.02 0.02 0.03 0.03
MSLP
1010.23 1009.79 1009.40 1009.09 1008.87 1008.74 1008.67 1008.61 1008.52 1008.36 1008.12 1007.80 1007.41 1007.02 1006.65 1006.35 1006.16 1006.08 1006.11 1006.24 1006.44 1006.68 1006.95 1007.21 1007.49 1007.78 1008.10 1008.46 1008.87 1009.32 1009.80 1010.30 1010.78 1011.23 1011.61 1011.91 1012.14 1012.30 1012.41 1012.49 1012.54 1012.59 1012.65 1012.71
1010.78 1010.26 1009.73 1009.24 1008.84 1008.54 1008.34 1008.21 1008.12 1008.05 1007.95 1007.82 1007.64 1007.43 1007.21 1007.00 1006.82 1006.68 1006.60 1006.56 1006.58 1006.64 1006.73 1006.86 1007.03 1007.25 1007.53 1007.88 1008.29 1008.75 1009.25 1009.76 1010.25 1010.70 1011.09 1011.41 1011.64 1011.80 1011.90 1011.96 1011.99 1012.00 1012.02 1012.04
1011.20 1010.62 1009.99 1009.37 1008.83 1008.40 1008.11 1007.94 1007.89 1007.91 1007.96 1008.01 1008.03 1008.00 1007.91 1007.78 1007.61 1007.41 1007.20 1007.00 1006.83 1006.69 1006.59 1006.56 1006.61 1006.74 1006.95 1007.26 1007.65 1008.10 1008.59 1009.10 1009.60 1010.06 1010.46 1010.79 1011.03 1011.20 1011.30 1011.35 1011.36 1011.36 1011.35 1011.36
1011.43 1010.82 1010.12 1009.43 1008.81 1008.31 1007.98 1007.82 1007.82 1007.94 1008.14 1008.36 1008.55 1008.67 1008.70 1008.63 1008.46 1008.19 1007.87 1007.51 1007.14 1006.80 1006.52 1006.33 1006.23 1006.24 1006.36 1006.61 1006.94 1007.36 1007.83 1008.32 1008.81 1009.27 1009.67 1010.00 1010.26 1010.45 1010.57 1010.63 1010.65 1010.65 1010.65 1010.66
1011.42 1010.80 1010.10 1009.39 1008.75 1008.25 1007.93 1007.81 1007.88 1008.10 1008.42 1008.78 1009.11 1009.36 1009.47 1009.44 1009.26 1008.94 1008.51 1008.00 1007.47 1006.95 1006.50 1006.14 1005.89 1005.78 1005.80 1005.95 1006.21 1006.57 1006.98 1007.43 1007.88 1008.32 1008.71 1009.05 1009.32 1009.53 1009.67 1009.76 1009.81 1009.84 1009.86 1009.89
1011.17 1010.57 1009.90 1009.22 1008.62 1008.16 1007.90 1007.85 1007.99 1008.31 1008.73 1009.19 1009.62 1009.94 1010.11 1010.11 1009.91 1009.54 1009.02 1008.40 1007.74 1007.09 1006.49 1005.99 1005.61 1005.38 1005.29 1005.33 1005.50 1005.76 1006.10 1006.47 1006.86 1007.25 1007.61 1007.94 1008.21 1008.44 1008.61 1008.73 1008.82 1008.89 1008.95 1009.03
1010.71 1010.15 1009.53 1008.93 1008.41 1008.04 1007.85 1007.87 1008.09 1008.47 1008.96 1009.48 1009.95 1010.31 1010.51 1010.51 1010.30 1009.90 1009.33 1008.65 1007.91 1007.17 1006.48 1005.88 1005.40 1005.06 1004.87 1004.80 1004.86 1005.01 1005.23 1005.50 1005.81 1006.12 1006.42 1006.71 1006.97 1007.20 1007.40 1007.56 1007.70 1007.82 1007.93 1008.06
1010.09 1009.58 1009.05 1008.54 1008.13 1007.85 1007.75 1007.84 1008.11 1008.53 1009.03 1009.56 1010.04 1010.40 1010.60 1010.60 1010.38 1009.97 1009.40 1008.70 1007.94 1007.17 1006.44 1005.79 1005.25 1004.83 1004.54 1004.38 1004.31 1004.34 1004.43 1004.58 1004.76 1004.97 1005.19 1005.41 1005.64 1005.86 1006.07 1006.27 1006.46 1006.64 1006.82 1007.02
1009.37 1008.93 1008.49 1008.10 1007.79 1007.62 1007.59 1007.73 1008.02 1008.42 1008.90 1009.40 1009.84 1010.17 1010.35 1010.34 1010.14 1009.75 1009.21 1008.55 1007.82 1007.07 1006.35 1005.70 1005.13 1004.66 1004.30 1004.03 1003.85 1003.74 1003.69 1003.70 1003.74 1003.83 1003.94 1004.09 1004.27 1004.47 1004.70 1004.93 1005.17 1005.43 1005.69 1005.97
1008.61 1008.24 1007.90 1007.62 1007.42 1007.33 1007.36 1007.52 1007.79 1008.15 1008.57 1009.00 1009.37 1009.66 1009.81 1009.80 1009.62 1009.28 1008.79 1008.20 1007.54 1006.86 1006.19 1005.56 1004.99 1004.49 1004.06 1003.70 1003.41 1003.17 1002.98 1002.84 1002.74 1002.70 1002.71 1002.78 1002.91 1003.09 1003.32 1003.60 1003.91 1004.24 1004.60 1004.99
1007.82 1007.54 1007.31 1007.13 1007.03 1007.00 1007.06 1007.20 1007.43 1007.72 1008.06 1008.39 1008.69 1008.92 1009.04 1009.03 1008.88 1008.60 1008.20 1007.70 1007.12 1006.52 1005.90 1005.30 1004.74 1004.21 1003.73 1003.29 1002.89 1002.53 1002.21 1001.93 1001.71 1001.56 1001.48 1001.48 1001.57 1001.74 1002.00 1002.33 1002.72 1003.16 1003.63 1004.13
1006.99 1006.81 1006.68 1006.60 1006.57 1006.58 1006.65 1006.77 1006.94 1007.15 1007.39 1007.63 1007.86 1008.03 1008.13 1008.13 1008.02 1007.80 1007.47 1007.05 1006.56 1006.02 1005.45 1004.86 1004.29 1003.72 1003.18 1002.66 1002.17 1001.70 1001.28 1000.90 1000.59 1000.35 1000.21 1000.18 1000.26 1000.45 1000.76 1001.17 1001.66 1002.21 1002.81 1003.43
1006.07 1005.98 1005.95 1005.96 1005.99 1006.04 1006.11 1006.20 1006.31 1006.45 1006.60 1006.77 1006.94 1007.07 1007.16 1007.17 1007.10 1006.93 1006.66 1006.30 1005.85 1005.34 1004.77 1004.18 1003.56 1002.94 1002.33 1001.73 1001.16 1000.62 1000.12 999.69 999.33 999.06 998.91 998.88 998.99 999.24 999.62 1000.12 1000.72 1001.39 1002.11 1002.85
1004.96 1004.98 1005.04 1005.13 1005.22 1005.31 1005.38 1005.44 1005.52 1005.60 1005.71 1005.84 1005.97 1006.09 1006.18 1006.21 1006.17 1006.03 1005.79 1005.44 1005.00 1004.46 1003.86 1003.21 1002.52 1001.83 1001.14 1000.47 999.84 999.25 998.73 998.28 997.93 997.69 997.58 997.60 997.78 998.11 998.58 999.17 999.88 1000.66 1001.49 1002.33
1003.60 1003.71 1003.87 1004.04 1004.19 1004.31 1004.40 1004.47 1004.54 1004.61 1004.71 1004.83 1004.96 1005.10 1005.20 1005.26 1005.23 1005.11 1004.86 1004.49 1003.99 1003.40 1002.71 1001.97 1001.19 1000.41 999.64 998.92 998.26 997.67 997.17 996.76 996.47 996.31 996.28 996.40 996.67 997.08 997.64 998.33 999.12 999.98 1000.88 1001.78
1001.94 1002.14 1002.38 1002.62 1002.84 1003.01 1003.15 1003.26 1003.36 1003.47 1003.60 1003.75 1003.92 1004.09 1004.23 1004.31 1004.29 1004.15 1003.87 1003.44 1002.87 1002.17 1001.38 1000.53 999.65 998.79 997.97 997.22 996.56 996.01 995.58 995.27 995.09 995.04 995.13 995.36 995.72 996.23 996.86 997.60 998.43 999.32 1000.24 1001.16
999.99 1000.26 1000.57 1000.89 1001.18 1001.43 1001.64 1001.82 1001.99 1002.17 1002.38 1002.60 1002.84 1003.07 1003.25 1003.35 1003.34 1003.17 1002.84 1002.34 1001.68 1000.88 999.98 999.03 998.07 997.15 996.30 995.57 994.96 994.50 994.17 993.99 993.95 994.04 994.26 994.59 995.05 995.61 996.27 997.02 997.84 998.70 999.58 1000.45
997.83 998.16 998.55 998.94 999.31 999.65 999.95 1000.22 1000.50 1000.79 1001.09 1001.42 1001.74 1002.04 1002.27 1002.40 1002.38 1002.20 1001.82 1001.25 1000.50 999.62 998.64 997.62 996.62 995.69 994.87 994.20 993.69 993.35 993.17 993.14 993.25 993.48 993.81 994.24 994.75 995.33 995.97 996.67 997.42 998.19 998.97 999.73
995.63 996.01 996.45 996.91 997.36 997.79 998.20 998.59 998.98 999.39 999.81 1000.24 1000.66 1001.04 1001.32 1001.48 1001.47 1001.27 1000.86 1000.25 999.46 998.53 997.53 996.51 995.53 994.65 993.91 993.35 992.97 992.78 992.76 992.90 993.15 993.50 993.92 994.40 994.92 995.46 996.04 996.64 997.26 997.89 998.52 999.13
993.59 993.99 994.48 995.00 995.53 996.05 996.56 997.06 997.57 998.10 998.63 999.17 999.67 1000.12 1000.46 1000.65 1000.66 1000.46 1000.05 999.44 998.65 997.75 996.78 995.82 994.93 994.16 993.55 993.14 992.93 992.91 993.05 993.33 993.71 994.15 994.62 995.11 995.59 996.06 996.53 996.99 997.45 997.91 998.37 998.82
991.91 992.33 992.84 993.41 994.00 994.59 995.18 995.79 996.40 997.02 997.65 998.27 998.85 999.35 999.74 999.97 1000.01 999.84 999.47 998.90 998.18 997.35 996.49 995.65 994.91 994.30 993.86 993.63 993.60 993.74 994.03 994.42 994.89 995.38 995.86 996.31 996.73 997.10 997.43 997.74 998.03 998.32 998.62 998.91
990.76 991.19 991.71 992.30 992.92 993.56 994.21 994.88 995.56 996.26 996.95 997.63 998.26 998.81 999.23 999.49 999.58 999.46 999.16 998.68 998.06 997.37 996.67 996.00 995.44 995.03 994.79 994.74 994.87 995.15 995.56 996.04 996.55 997.05 997.51 997.91 998.23 998.49 998.70 998.86 999.01 999.16 999.31 999.49
990.25 990.66 991.18 991.76 992.38 993.03 993.71 994.41 995.12 995.85 996.58 997.28 997.94 998.51 998.96 999.26 999.40 999.35 999.14 998.78 998.31 997.79 997.26 996.80 996.44 996.23 996.18 996.30 996.57 996.97 997.45 997.98 998.50 998.98 999.39 999.72 999.96 1000.12 1000.21 1000.27 1000.31 1000.36 1000.42 1000.52
990.40 990.78 991.26 991.80 992.40 993.03 993.68 994.37 995.08 995.80 996.53 997.24 997.89 998.47 998.94 999.28 999.46 999.50 999.39 999.16 998.85 998.51 998.18 997.92 997.76 997.73 997.84 998.10 998.48 998.95 999.47 1000.00 1000.51 1000.95 1001.30 1001.56 1001.73 1001.81 1001.83 1001.82 1001.81 1001.80 1001.83 1001.89
991.15 991.49 991.90 992.38 992.91 993.48 994.09 994.73 995.40 996.09 996.79 997.47 998.11 998.69 999.16 999.53 999.77 999.88 999.87 999.77 999.62 999.44 999.29 999.20 999.21 999.33 999.57 999.93 1000.37 1000.87 1001.40 1001.91 1002.38 1002.77 1003.07 1003.27 1003.38 1003.42 1003.41 1003.38 1003.35 1003.34 1003.37 1003.43
992.40 992.66 992.99 993.39 993.83 994.31 994.85 995.42 996.03 996.67 997.32 997.96 998.57 999.13 999.61 999.99 1000.27 1000.45 1000.53 1000.55 1000.52 1000.49 1000.48 1000.53 1000.66 1000.89 1001.21 1001.62 1002.08 1002.58 1003.09 1003.56 1003.97 1004.31 1004.56 1004.73 1004.81 1004.84 1004.84 1004.82 1004.81 1004.82 1004.87 1004.96
993.99 994.17 994.40 994.69 995.03 995.42 995.87 996.36 996.90 997.47 998.07 998.67 999.24 999.78 1000.25 1000.64 1000.95 1001.18 1001.34 1001.44 1001.50 1001.57 1001.67 1001.81 1002.02 1002.30 1002.66 1003.07 1003.53 1004.00 1004.46 1004.88 1005.25 1005.54 1005.76 1005.91 1005.99 1006.03 1006.05 1006.06 1006.08 1006.12 1006.20 1006.29
Thickness
5783 5790 5790 5788 5789 5791 5791 5797 5794 5801 5806 5815 5822 5825 5826 5827 5827 5825 5824 5824 5823 5821 5819 5817 5815 5813 5811 5809 5806 5803 5798 5794 5791 5788 5785 5782 5779 5777 5775 5773 5771 5768 5766 5764
5767 5778 5780 5779 5786 5788 5788 5793 5796 5800 5805 5821 5824 5824 5820 5821 5821 5819 5819 5820 5820 5818 5816 5814 5812 5811 5809 5806 5804 5801 5796 5793 5791 5787 5783 5781 5778 5776 5773 5771 5769 5767 5764 5763
5757 5769 5767 5763 5782 5785 5787 5794 5795 5793 5804 5814 5812 5812 5813 5814 5815 5816 5817 5818 5817 5817 5815 5813 5812 5810 5807 5804 5802 5798 5794 5792 5789 5785 5782 5779 5778 5774 5771 5769 5767 5764 5762 5760
5751 5748 5736 5774 5794 5793 5788 5791 5798 5799 5804 5808 5808 5810 5813 5814 5813 5813 5815 5815 5815 5816 5815 5814 5813 5811 5808 5804 5800 5796 5792 5789 5786 5783 5780 5777 5775 5772 5769 5767 5765 5763 5761 5759
5743 5740 5749 5765 5779 5783 5777 5777 5792 5794 5798 5803 5807 5806 5806 5811 5813 5813 5814 5814 5814 5815 5815 5813 5811 5809 5805 5801 5797 5793 5790 5787 5785 5781 5778 5774 5772 5769 5767 5764 5763 5761 5759 5757
5734 5731 5734 5760 5778 5784 5775 5765 5787 5789 5789 5793 5795 5790 5797 5805 5808 5809 5809 5809 5809 5810 5810 5807 5806 5805 5799 5796 5792 5789 5788 5785 5782 5779 5776 5773 5771 5767 5765 5762 5760 5759 5756 5754
5727 5730 5746 5764 5772 5770 5748 5760 5779 5782 5782 5785 5785 5789 5794 5798 5799 5801 5801 5802 5803 5803 5802 5801 5801 5798 5793 5791 5788 5788 5786 5782 5779 5775 5773 5770 5767 5763 5760 5758 5757 5754 5752 5751
5725 5724 5735 5760 5760 5755 5758 5767 5771 5772 5775 5776 5778 5782 5786 5788 5790 5792 5793 5794 5795 5794 5793 5794 5794 5791 5787 5785 5785 5784 5781 5777 5774 5771 5769 5768 5762 5758 5755 5753 5750 5748 5746 5745
5729 5733 5744 5753 5754 5756 5760 5759 5762 5765 5769 5770 5771 5773 5776 5778 5780 5783 5785 5786 5788 5787 5785 5785 5786 5785 5781 5780 5780 5778 5774 5771 5769 5766 5763 5762 5758 5754 5751 5748 5749 5746 5744 5742
5719 5729 5736 5742 5747 5750 5753 5754 5757 5760 5763 5764 5764 5767 5769 5770 5772 5774 5775 5778 5780 5779 5777 5776 5777 5777 5775 5774 5773 5771 5768 5765 5763 5760 5757 5755 5753 5751 5749 5747 5745 5743 5740 5738
5710 5720 5726 5731 5736 5740 5744 5747 5750 5752 5755 5758 5759 5761 5762 5762 5764 5765 5766 5768 5770 5770 5769 5769 5769 5768 5769 5768 5767 5764 5762 5760 5758 5756 5754 5749 5747 5746 5744 5743 5741 5737 5735 5733
5708 5717 5719 5722 5729 5734 5735 5737 5741 5743 5746 5751 5753 5754 5755 5756 5757 5757 5757 5759 5759 5760 5760 5760 5761 5760 5760 5761 5760 5758 5756 5754 5754 5752 5748 5746 5743 5739 5734 5733 5729 5725 5723 5722
5706 5713 5716 5719 5723 5727 5729 5732 5735 5737 5739 5741 5745 5748 5748 5748 5748 5748 5748 5749 5749 5750 5751 5752 5752 5751 5752 5753 5752 5750 5749 5748 5747 5746 5744 5740 5738 5735 5730 5724 5718 5715 5713 5711
5697 5700 5702 5708 5713 5719 5722 5725 5728 5731 5733 5735 5737 5738 5739 5738 5738 5737 5737 5739 5741 5742 5743 5743 5743 5742 5744 5744 5744 5742 5742 5741 5739 5738 5737 5734 5732 5729 5726 5722 5717 5714 5708 5702
5688 5693 5697 5702 5706 5710 5714 5716 5718 5720 5723 5725 5727 5728 5728 5727 5726 5727 5728 5731 5732 5732 5733 5734 5734 5734 5736 5736 5735 5734 5734 5734 5732 5730 5729 5727 5724 5721 5719 5715 5712 5709 5706 5700
5681 5686 5690 5692 5695 5700 5704 5707 5709 5711 5713 5715 5716 5716 5717 5717 5717 5719 5720 5722 5722 5722 5723 5724 5725 5726 5728 5728 5728 5727 5726 5723 5721 5721 5720 5718 5715 5712 5710 5707 5704 5700 5698 5697
5671 5675 5681 5685 5689 5694 5697 5700 5702 5703 5704 5705 5705 5707 5707 5707 5707 5708 5711 5713 5714 5714 5715 5715 5716 5718 5719 5719 5719 5719 5719 5716 5711 5712 5712 5709 5707 5703 5700 5697 5695 5693 5690 5689
5670 5674 5678 5682 5685 5688 5690 5693 5694 5695 5696 5697 5697 5697 5697 5697 5698 5700 5702 5704 5705 5705 5707 5708 5708 5708 5709 5710 5709 5710 5710 5708 5705 5703 5702 5699 5697 5695 5692 5689 5687 5685 5682 5679
5666 5669 5673 5676 5679 5682 5683 5685 5687 5688 5688 5689 5688 5688 5689 5690 5691 5692 5694 5694 5695 5696 5699 5701 5697 5700 5701 5701 5699 5700 5700 5700 5697 5695 5692 5687 5686 5686 5684 5682 5679 5677 5675 5672
5661 5665 5668 5670 5672 5674 5676 5678 5680 5680 5681 5682 5682 5681 5681 5682 5683 5684 5685 5686 5690 5693 5693 5692 5692 5692 5693 5692 5688 5692 5692 5690 5688 5685 5683 5681 5678 5676 5674 5673 5671 5669 5666 5663
5657 5660 5662 5663 5664 5667 5669 5671 5673 5673 5674 5676 5675 5675 5675 5675 5676 5677 5678 5680 5683 5684 5684 5682 5683 5684 5684 5681 5679 5683 5682 5680 5678 5676 5673 5671 5668 5666 5664 5662 5660 5659 5657 5653
5650 5652 5654 5656 5657 5658 5661 5663 5665 5665 5666 5667 5668 5668 5668 5667 5669 5670 5671 5672 5675 5672 5675 5677 5678 5674 5672 5669 5673 5673 5672 5669 5667 5665 5663 5660 5658 5656 5653 5651 5650 5649 5647 5644
5642 5644 5646 5647 5648 5649 5652 5654 5655 5656 5657 5658 5658 5659 5660 5661 5664 5664 5664 5666 5667 5664 5666 5667 5663 5659 5657 5661 5663 5662 5660 5658 5656 5655 5653 5650 5648 5646 5643 5641 5640 5638 5635 5633
5633 5635 5637 5639 5641 5642 5643 5646 5647 5648 5649 5650 5651 5652 5653 5654 5656 5659 5659 5656 5654 5653 5656 5651 5648 5647 5646 5652 5652 5651 5650 5648 5646 5645 5642 5641 5639 5636 5633 5631 5629 5627 5625 5622
5625 5627 5629 5631 5632 5635 5637 5638 5638 5640 5642 5644 5645 5646 5647 5649 5650 5651 5650 5649 5645 5645 5646 5642 5638 5637 5640 5643 5642 5642 5640 5638 5636 5634 5632 5630 5629 5627 5624 5622 5619 5616 5613 5611
5619 5621 5624 5625 5628 5629 5632 5633 5634 5635 5636 5637 5638 5640 5641 5641 5641 5641 5641 5640 5639 5636 5637 5635 5633 5630 5632 5632 5632 5631 5630 5627 5626 5624 5622 5619 5618 5616 5613 5610 5607 5604 5601 5599
5615 5617 5618 5621 5624 5625 5626 5627 5628 5629 5630 5631 5631 5632 5633 5633 5633 5633 5632 5632 5631 5630 5629 5628 5626 5624 5623 5622 5621 5619 5617 5616 5614 5613 5610 5608 5606 5604 5601 5598 5596 5593 5589 5587